Stanley, ID

7:24 AM MDT on September 22, 2017 (GMT -0600)
Stanley

Weather History for KSNT - April, 2014

Change the Weather History Date:

Friday, April 11, 2014

  Actual Average Record
Temperature  
Mean Temperature 37 °F 32 °F  
Max Temperature 54 °F 46 °F 66 °F (1985)
Min Temperature 19 °F 19 °F -2 °F (1999)
Degree Days  
Heating Degree Days 28 33  
Month to date heating degree days 359 374  
Since 1 July heating degree days 8674 9092  
Cooling Degree Days 0 0  
Month to date cooling degree days 0 0  
Year to date cooling degree days 0 0  
Moisture  
Dew Point 21 °F    
Average Humidity 58    
Maximum Humidity 88    
Minimum Humidity 28    
Precipitation  
Precipitation 0.00 in 0.05 in 0.22 in (2015)
Month to date precipitation 1.08 0.68  
Year to date precipitation 10.61 5.80  
Sea Level Pressure  
Sea Level Pressure 29.94 in    
Wind  
Wind Speed 3 mph (ESE)    
Max Wind Speed 10 mph    
Max Gust Speed 15 mph    
T = Trace of Precipitation, MM = Missing Value Source: NWS Daily Summary

Daily Weather History Graph

Daily Weather History Graph

Search for Another Location

Airport or City:

Trip Planner

Search our weather history database for the weather conditions in past years. The results will help you decide how hot, cold, wet, or windy it might be!

Date:

Astronomy

Apr. 11, 2014 Rise Set
Actual Time 7:02 AM MDT 8:19 PM MDT
Civil Twilight 6:33 AM MDT 8:49 PM MDT
Nautical Twilight 5:57 AM MDT 9:25 PM MDT
Astronomical Twilight 5:19 AM MDT 10:03 PM MDT
Moon 4:57 PM MDT (4/11) 5:07 AM MDT (4/11)
Length of Visible Light 14h 16m
Length of Day
13h 16m
Waxing Gibbous, 87% of the Moon is Illuminated
Apr 11
Waxing Gibbous
Apr 15
Full
Apr 22
Last Quarter
Apr 29
New
May 6
First Quarter

Hourly Weather History & Observations

Time (MDT) Temp. Windchill Dew Point Humidity Pressure Visibility Wind Dir Wind Speed Gust Speed Precip Events Conditions
12:51 AM 28.0 °F 22.8 °F 21.0 °F 75% 30.01 in - South 4.6 mph - N/A   Unknown
1:51 AM 26.1 °F 20.5 °F 19.9 °F 78% 30.01 in - SE 4.6 mph - N/A   Unknown
2:51 AM 25.0 °F - 19.0 °F 78% 30.01 in - Calm Calm - N/A   Unknown
3:51 AM 23.0 °F - 19.0 °F 85% 30.00 in - Calm Calm - N/A   Unknown
4:51 AM 21.9 °F - 18.0 °F 85% 30.01 in - Calm Calm - N/A   Unknown
5:51 AM 21.0 °F - 17.1 °F 85% 30.00 in - Calm Calm - N/A   Unknown
6:51 AM 19.9 °F 14.9 °F 16.0 °F 85% 30.02 in - Variable 3.5 mph - N/A   Unknown
7:51 AM 21.9 °F - 18.0 °F 85% 30.04 in - Calm Calm - N/A   Unknown
8:51 AM 25.0 °F 20.7 °F 19.0 °F 78% 30.03 in - Variable 3.5 mph - N/A   Unknown
9:51 AM 27.0 °F 23.0 °F 19.9 °F 75% 30.01 in - East 3.5 mph - N/A   Unknown
10:51 AM 36.0 °F 32.1 °F 21.9 °F 57% 29.99 in - Variable 4.6 mph - N/A   Unknown
11:51 AM 39.9 °F - 21.9 °F 49% 29.97 in - Calm Calm - N/A   Unknown
12:51 PM 50.0 °F - 21.0 °F 32% 29.91 in - NNW 4.6 mph - N/A   Unknown
1:51 PM 51.1 °F - 21.0 °F 31% 29.90 in - Calm Calm - N/A   Unknown
2:51 PM 53.1 °F - 21.9 °F 30% 29.89 in - Variable 3.5 mph - N/A   Unknown
3:51 PM 52.0 °F - 21.9 °F 31% 29.88 in - Calm Calm - N/A   Unknown
4:51 PM 52.0 °F - 24.1 °F 34% 29.87 in - North 3.5 mph - N/A   Unknown
5:51 PM 54.0 °F - 23.0 °F 30% 29.85 in - NNE 5.8 mph - N/A   Unknown
6:51 PM 52.0 °F - 24.1 °F 34% 29.86 in - Variable 5.8 mph - N/A   Unknown
7:51 PM 45.0 °F - 26.1 °F 48% 29.86 in - Calm Calm - N/A   Unknown
8:51 PM 39.9 °F - 26.1 °F 58% 29.88 in - Calm Calm - N/A   Unknown
9:51 PM 37.0 °F 34.5 °F 24.1 °F 59% 29.90 in - South 3.5 mph - N/A   Unknown
10:51 PM 33.1 °F 30.0 °F 23.0 °F 66% 29.86 in - SE 3.5 mph - N/A   Unknown
11:51 PM 30.0 °F 24.1 °F 23.0 °F 75% 29.85 in - SE 5.8 mph - N/A   Unknown